9W2SHB-13 Weather Reports


Display with metric or nautical units.
time (UTC)temp
F
wind
direction
speed
MPH
gust
MPH
rain 1hr
in
rain 24hr
in
rain mn
in
humidity
%
barometer
mb
20260506190006 88 0 0.0 0.0 0.00 0.00 0.00 65 1026.9
20260506184507 88 0 0.0 0.0 0.00 0.00 0.00 65 1027.0
20260506183006 88 0 0.0 0.0 0.00 0.00 0.00 65 1027.2
20260506181507 88 0 0.0 0.0 0.00 0.00 0.00 65 1027.3
20260506180006 88 0 0.0 0.0 0.00 0.00 0.00 65 1027.4
20260506174507 88 0 0.0 0.0 0.00 0.00 0.00 66 1027.6
20260506173007 88 0 0.0 0.0 0.00 0.00 0.00 66 1027.7
20260506171506 88 0 0.0 0.0 0.00 0.00 0.00 66 1028.0
20260506170007 88 0 0.0 0.0 0.00 0.00 0.00 65 1028.2
20260506164507 88 0 0.0 0.0 0.00 0.00 0.00 66 1028.4
20260506163007 88 0 0.0 0.0 0.00 0.00 0.00 66 1028.5
20260506161507 88 0 0.0 0.0 0.00 0.00 0.00 66 1028.7
20260506160007 88 0 0.0 0.0 0.00 0.00 0.00 65 1028.5
20260506154506 88 0 0.0 0.0 0.00 0.00 0.00 65 1028.3
20260506153006 88 0 0.0 0.0 0.00 0.00 0.00 65 1028.0
20260506151507 88 0 0.0 0.0 0.00 0.00 0.00 65 1028.0
20260506150006 88 0 0.0 0.0 0.00 0.00 0.00 64 1028.3
20260506144507 88 0 0.0 0.0 0.00 0.00 0.00 64 1028.2
20260506143006 89 0 0.0 0.0 0.00 0.00 0.00 64 1028.3
20260506141507 89 0 0.0 0.0 0.00 0.00 0.00 63 1028.3
20260506140008 89 0 0.0 0.0 0.00 0.00 0.00 63 1028.5
20260506134506 89 0 0.0 0.0 0.00 0.00 0.00 63 1027.7
20260506133007 89 0 0.0 0.0 0.00 0.00 0.00 63 1027.7
20260506131507 89 0 0.0 0.0 0.00 0.00 0.00 63 1027.5
20260506130007 89 0 0.0 0.0 0.00 0.00 0.00 62 1026.9
20260506124507 89 0 0.0 0.0 0.00 0.00 0.00 62 1027.0
20260506123007 89 0 0.0 0.0 0.00 0.00 0.00 62 1026.7
20260506121506 89 0 0.0 0.0 0.00 0.00 0.00 60 1026.3
20260506120007 89 0 0.0 0.0 0.00 0.00 0.00 60 1026.0
20260506114507 89 0 0.0 0.0 0.00 0.00 0.00 61 1025.6
20260506113006 89 0 0.0 0.0 0.00 0.00 0.00 60 1025.4
20260506111507 90 0 0.0 0.0 0.00 0.00 0.00 59 1025.5
20260506110007 90 0 0.0 0.0 0.00 0.00 0.00 59 1025.5
20260506104507 90 0 0.0 0.0 0.00 0.00 0.00 59 1025.4
20260506103007 90 0 0.0 0.0 0.00 0.00 0.00 59 1025.4
20260506101507 90 0 0.0 0.0 0.00 0.00 0.00 60 1025.1
20260506100007 90 0 0.0 0.0 0.00 0.00 0.00 60 1025.2
20260506094507 90 0 0.0 0.0 0.00 0.00 0.00 60 1024.7
20260506093006 91 0 0.0 0.0 0.00 0.00 0.00 60 1024.7
20260506091507 91 0 0.0 0.0 0.00 0.00 0.00 60 1024.4
20260506090007 91 0 0.0 0.0 0.00 0.00 0.00 59 1024.3
20260506084507 91 0 0.0 0.0 0.00 0.00 0.00 61 1024.1
20260506083006 92 0 0.0 0.0 0.00 0.00 0.00 59 1024.1
20260506081507 91 0 0.0 0.0 0.00 0.00 0.00 59 1024.2
20260506073006 91 0 0.0 0.0 0.00 0.00 0.00 58 1024.6
20260506071507 92 0 0.0 0.0 0.00 0.00 0.00 56 1024.9
20260506061507 90 0 0.0 0.0 0.00 0.00 0.00 60 1026.1
20260506044507 89 0 0.0 0.0 0.00 0.00 0.00 62 1028.1
20260506043007 89 0 0.0 0.0 0.00 0.00 0.00 63 1028.2
20260506041507 88 0 0.0 0.0 0.00 0.00 0.00 64 1028.5
20260506040006 88 0 0.0 0.0 0.00 0.00 0.00 64 1028.7
20260506034507 88 0 0.0 0.0 0.00 0.00 0.00 65 1028.8
20260506033007 87 0 0.0 0.0 0.00 0.00 0.00 65 1028.9
20260506031507 87 0 0.0 0.0 0.00 0.00 0.00 64 1029.1
20260506030007 87 0 0.0 0.0 0.00 0.00 0.00 67 1029.2
20260506024507 87 0 0.0 0.0 0.00 0.00 0.00 68 1029.3
20260506023007 86 0 0.0 0.0 0.00 0.00 0.00 69 1029.3
20260506021506 86 0 0.0 0.0 0.00 0.00 0.00 70 1029.3
20260506020007 86 0 0.0 0.0 0.00 0.00 0.00 70 1029.2
20260506014507 86 0 0.0 0.0 0.00 0.00 0.00 69 1029.4
20260506013007 86 0 0.0 0.0 0.00 0.00 0.00 69 1029.2
20260506011507 87 0 0.0 0.0 0.00 0.00 0.00 67 1029.0
20260506010006 86 0 0.0 0.0 0.00 0.00 0.00 68 1028.9
20260506004507 86 0 0.0 0.0 0.00 0.00 0.00 68 1028.6
20260506003007 86 0 0.0 0.0 0.00 0.00 0.00 68 1028.2
20260506001506 86 0 0.0 0.0 0.00 0.00 0.00 68 1028.1
20260506000006 86 0 0.0 0.0 0.00 0.00 0.00 67 1028.0
20260505234507 86 0 0.0 0.0 0.00 0.00 0.00 67 1027.9
20260505233006 86 0 0.0 0.0 0.00 0.00 0.00 68 1027.7
20260505231506 86 0 0.0 0.0 0.00 0.00 0.00 67 1027.5
20260505230007 87 0 0.0 0.0 0.00 0.00 0.00 66 1027.6
20260505224507 86 0 0.0 0.0 0.00 0.00 0.00 66 1027.7
20260505223007 87 0 0.0 0.0 0.00 0.00 0.00 65 1027.8
20260505221506 85 0 0.0 0.0 0.00 0.00 0.00 67 1027.8
20260505220007 85 0 0.0 0.0 0.00 0.00 0.00 67 1027.7
20260505214506 86 0 0.0 0.0 0.00 0.00 0.00 67 1027.6
20260505213007 86 0 0.0 0.0 0.00 0.00 0.00 67 1027.6
20260505211507 87 0 0.0 0.0 0.00 0.00 0.00 66 1027.6
20260505210006 87 0 0.0 0.0 0.00 0.00 0.00 66 1027.3
20260505204507 87 0 0.0 0.0 0.00 0.00 0.00 66 1027.2
20260505203007 87 0 0.0 0.0 0.00 0.00 0.00 67 1027.1
20260505201506 87 0 0.0 0.0 0.00 0.00 0.00 66 1026.9
20260505200007 87 0 0.0 0.0 0.00 0.00 0.00 66 1027.0
20260505194506 87 0 0.0 0.0 0.00 0.00 0.00 67 1027.2
20260505193007 87 0 0.0 0.0 0.00 0.00 0.00 67 1027.0
20260505191507 87 0 0.0 0.0 0.00 0.00 0.00 67 1027.1